TimeEST,TemperatureF,Dew PointF,Humidity,Sea Level PressureIn,VisibilityMPH,Wind Direction,Wind SpeedMPH,Gust SpeedMPH,PrecipitationIn,Events,Conditions,WindDirDegrees,DateUTC
12:15 AM,46.4,32.0,57,30.24,10.0,West,6.9,-,N/A,,Clear,260,2013-11-10 05:15:00
12:35 AM,46.4,33.8,62,30.24,10.0,West,6.9,-,N/A,,Clear,260,2013-11-10 05:35:00
12:55 AM,46.4,33.8,62,30.25,10.0,WSW,4.6,-,N/A,,Clear,250,2013-11-10 05:55:00
1:15 AM,46.4,32.0,57,30.25,10.0,Calm,Calm,-,N/A,,Clear,0,2013-11-10 06:15:00
1:35 AM,44.6,33.8,66,30.25,10.0,Calm,Calm,-,N/A,,Clear,0,2013-11-10 06:35:00
1:55 AM,42.8,32.0,66,30.25,10.0,Calm,Calm,-,N/A,,Clear,0,2013-11-10 06:55:00
2:15 AM,42.8,32.0,66,30.25,10.0,Calm,Calm,-,N/A,,Clear,0,2013-11-10 07:15:00
2:35 AM,42.8,32.0,66,30.25,10.0,Calm,Calm,-,N/A,,Clear,0,2013-11-10 07:35:00
2:55 AM,42.8,33.8,70,30.25,10.0,Calm,Calm,-,N/A,,Clear,0,2013-11-10 07:55:00
3:15 AM,41.0,33.8,76,30.25,10.0,Calm,Calm,-,N/A,,Clear,0,2013-11-10 08:15:00
3:35 AM,41.0,32.0,70,30.25,10.0,Calm,Calm,-,N/A,,Clear,0,2013-11-10 08:35:00
3:55 AM,39.2,32.0,75,30.25,10.0,Calm,Calm,-,N/A,,Clear,0,2013-11-10 08:55:00
4:15 AM,39.2,32.0,75,30.25,10.0,Calm,Calm,-,N/A,,Clear,0,2013-11-10 09:15:00
4:35 AM,41.0,32.0,70,30.25,10.0,Calm,Calm,-,N/A,,Clear,0,2013-11-10 09:35:00
4:55 AM,37.4,32.0,81,30.26,10.0,Calm,Calm,-,N/A,,Clear,0,2013-11-10 09:55:00
5:15 AM,37.4,33.8,87,30.26,10.0,Calm,Calm,-,N/A,,Clear,0,2013-11-10 10:15:00
5:35 AM,37.4,33.8,87,30.27,10.0,Calm,Calm,-,N/A,,Clear,0,2013-11-10 10:35:00
5:55 AM,37.4,32.0,81,30.28,10.0,Calm,Calm,-,N/A,,Clear,0,2013-11-10 10:55:00
6:15 AM,37.4,33.8,87,30.28,10.0,Calm,Calm,-,N/A,,Clear,0,2013-11-10 11:15:00
6:35 AM,37.4,33.8,87,30.28,10.0,Calm,Calm,-,N/A,,Clear,0,2013-11-10 11:35:00
6:55 AM,35.6,33.8,93,30.29,10.0,Calm,Calm,-,N/A,,Clear,0,2013-11-10 11:55:00
7:15 AM,37.4,33.8,87,30.29,10.0,Calm,Calm,-,N/A,,Clear,0,2013-11-10 12:15:00
7:35 AM,37.4,33.8,87,30.30,10.0,Calm,Calm,-,N/A,,Clear,0,2013-11-10 12:35:00
7:55 AM,39.2,33.8,81,30.31,10.0,Calm,Calm,-,N/A,,Clear,0,2013-11-10 12:55:00
8:15 AM,41.0,35.6,81,30.32,10.0,Calm,Calm,-,N/A,,Clear,0,2013-11-10 13:15:00
8:35 AM,42.8,35.6,76,30.33,10.0,Calm,Calm,-,N/A,,Clear,0,2013-11-10 13:35:00
8:55 AM,44.6,37.4,76,30.33,10.0,Calm,Calm,-,N/A,,Clear,0,2013-11-10 13:55:00
9:15 AM,46.4,39.2,76,30.33,10.0,Calm,Calm,-,N/A,,Clear,0,2013-11-10 14:15:00
9:35 AM,50.0,37.4,62,30.34,10.0,WNW,5.8,-,N/A,,Clear,290,2013-11-10 14:35:00
9:55 AM,50.0,37.4,62,30.34,10.0,WNW,4.6,-,N/A,,Clear,290,2013-11-10 14:55:00
10:15 AM,51.8,37.4,58,30.34,10.0,WNW,3.5,-,N/A,,Clear,300,2013-11-10 15:15:00
10:35 AM,53.6,35.6,51,30.34,10.0,WNW,5.8,-,N/A,,Clear,290,2013-11-10 15:35:00
10:55 AM,53.6,35.6,51,30.35,10.0,NNW,6.9,-,N/A,,Clear,340,2013-11-10 15:55:00
11:15 AM,55.4,33.8,44,30.34,10.0,WNW,8.1,-,N/A,,Clear,300,2013-11-10 16:15:00
11:35 AM,55.4,33.8,44,30.34,10.0,NW,5.8,-,N/A,,Clear,320,2013-11-10 16:35:00
11:55 AM,55.4,33.8,44,30.33,10.0,North,8.1,-,N/A,,Clear,360,2013-11-10 16:55:00
12:15 PM,57.2,32.0,38,30.33,10.0,WNW,5.8,-,N/A,,Clear,290,2013-11-10 17:15:00
12:35 PM,59.0,30.2,34,30.32,10.0,WNW,8.1,-,N/A,,Clear,290,2013-11-10 17:35:00
12:55 PM,59.0,28.4,31,30.31,10.0,NW,8.1,-,N/A,,Clear,320,2013-11-10 17:55:00
1:15 PM,59.0,28.4,31,30.30,10.0,NNW,8.1,-,N/A,,Clear,330,2013-11-10 18:15:00
1:35 PM,59.0,23.0,25,30.30,10.0,NNW,6.9,-,N/A,,Clear,340,2013-11-10 18:35:00
1:55 PM,59.0,21.2,23,30.30,10.0,North,13.8,-,N/A,,Clear,350,2013-11-10 18:55:00
2:15 PM,59.0,21.2,23,30.30,10.0,NNW,9.2,-,N/A,,Clear,340,2013-11-10 19:15:00
2:35 PM,59.0,21.2,23,30.30,10.0,North,9.2,-,N/A,,Clear,350,2013-11-10 19:35:00
2:55 PM,59.0,23.0,25,30.30,10.0,NNW,6.9,-,N/A,,Clear,330,2013-11-10 19:55:00
3:15 PM,57.2,21.2,25,30.30,10.0,NNW,8.1,-,N/A,,Clear,340,2013-11-10 20:15:00
3:35 PM,57.2,23.0,27,30.30,10.0,NW,9.2,16.1,N/A,,Clear,310,2013-11-10 20:35:00
3:55 PM,57.2,21.2,25,30.31,10.0,North,8.1,-,N/A,,Clear,350,2013-11-10 20:55:00
4:15 PM,55.4,21.2,26,30.32,10.0,North,9.2,-,N/A,,Clear,350,2013-11-10 21:15:00
4:35 PM,55.4,21.2,26,30.32,10.0,NNW,6.9,-,N/A,,Clear,340,2013-11-10 21:35:00
4:55 PM,53.6,21.2,28,30.32,10.0,NNW,4.6,-,N/A,,Clear,340,2013-11-10 21:55:00
5:15 PM,51.8,21.2,30,30.32,10.0,NNW,4.6,-,N/A,,Clear,330,2013-11-10 22:15:00
5:35 PM,51.8,21.2,30,30.32,10.0,North,4.6,-,N/A,,Clear,350,2013-11-10 22:35:00
5:55 PM,50.0,21.2,32,30.33,10.0,Calm,Calm,-,N/A,,Clear,0,2013-11-10 22:55:00
6:15 PM,50.0,21.2,32,30.33,10.0,NNE,3.5,-,N/A,,Clear,20,2013-11-10 23:15:00
6:35 PM,48.2,23.0,37,30.34,10.0,NNE,4.6,-,N/A,,Clear,20,2013-11-10 23:35:00
6:55 PM,48.2,21.2,34,30.34,10.0,NNE,3.5,-,N/A,,Clear,20,2013-11-10 23:55:00
7:15 PM,46.4,21.2,37,30.34,10.0,NNE,4.6,-,N/A,,Clear,30,2013-11-11 00:15:00
7:35 PM,46.4,21.2,37,30.35,10.0,NNE,3.5,-,N/A,,Clear,20,2013-11-11 00:35:00
7:55 PM,41.0,26.6,57,30.35,10.0,Calm,Calm,-,N/A,,Clear,0,2013-11-11 00:55:00
8:15 PM,42.8,26.6,53,30.35,10.0,Calm,Calm,-,N/A,,Clear,0,2013-11-11 01:15:00
8:35 PM,39.2,26.6,61,30.35,10.0,Calm,Calm,-,N/A,,Clear,0,2013-11-11 01:35:00
8:55 PM,39.2,28.4,65,30.35,10.0,Calm,Calm,-,N/A,,Clear,0,2013-11-11 01:55:00
9:15 PM,37.4,26.6,65,30.35,10.0,Calm,Calm,-,N/A,,Clear,0,2013-11-11 02:15:00
9:35 PM,37.4,28.4,70,30.36,10.0,Calm,Calm,-,N/A,,Clear,0,2013-11-11 02:35:00
9:55 PM,37.4,26.6,65,30.35,10.0,Calm,Calm,-,N/A,,Clear,0,2013-11-11 02:55:00
10:15 PM,35.6,28.4,75,30.35,10.0,Calm,Calm,-,N/A,,Clear,0,2013-11-11 03:15:00
10:35 PM,33.8,28.4,81,30.35,10.0,Calm,Calm,-,N/A,,Clear,0,2013-11-11 03:35:00
10:55 PM,33.8,28.4,81,30.35,10.0,Calm,Calm,-,N/A,,Clear,0,2013-11-11 03:55:00
11:15 PM,33.8,28.4,81,30.35,10.0,Calm,Calm,-,N/A,,Clear,0,2013-11-11 04:15:00
11:35 PM,32.0,28.4,87,30.35,10.0,Calm,Calm,-,N/A,,Clear,0,2013-11-11 04:35:00
11:55 PM,32.0,28.4,87,30.34,10.0,Calm,Calm,-,N/A,,Clear,0,2013-11-11 04:55:00